Location: Montreal
(45.5000°N, 73.5830°W)
Time: 00:01:18
(UTC-04:00)

N. Korean satellite - Visible Passes

Search period start: 17 October 2017 00:00
Search period end: 27 October 2017 00:00
Orbit: 459 x 517 km, 97.2° (Epoch: 16 October)

Date Brightness Start Highest point End Pass type
(mag) Time Alt. Az. Time Alt. Az. Time Alt. Az.
17 Oct 9.6 19:50:26 10° SW 19:52:56 18° W 19:55:25 10° NW visible
18 Oct 8.4 19:26:15 10° SSW 19:29:28 33° W 19:32:41 10° NNW visible
19 Oct 6.9 19:02:35 10° S 19:06:05 67° WSW 19:09:34 10° NNW visible
20 Oct 6.5 18:39:18 10° SSE 18:42:45 59° ENE 18:46:12 10° N visible
21 Oct 9.6 19:50:40 10° SW 19:53:06 18° W 19:55:31 10° NW visible
22 Oct 8.4 19:26:26 10° SSW 19:29:37 32° W 19:32:47 10° NNW visible
23 Oct 9.9 06:52:00 10° NE 06:54:14 16° E 06:56:27 10° SE visible
23 Oct 6.9 19:02:44 10° S 19:06:12 66° W 19:09:40 10° NNW visible
24 Oct 6.5 18:39:26 10° SSE 18:42:52 59° ENE 18:46:17 10° N visible
25 Oct 9.6 19:50:49 10° SW 19:53:11 17° W 19:55:34 10° NW visible
26 Oct 8.4 19:26:33 10° SSW 19:29:42 32° W 19:32:50 10° NNW visible
